FENGYUN 1C DEB

Satellite information

Favourite Embed

Satellite Type and Status

DEBRISIN ORBIT

Key statistics

Satellite FENGYUN 1C DEB at a glance.

Uptime

9715

Days in orbit

Revolutions

≈ 14.2

Per day

Orbit

SSO

Sun Synchronous Orbit

Inclination

98.6

Latest

Satellite identification and parameters

Extended collection of information and parameters for FENGYUN 1C DEB.

Object identification

Identified? True

Debris? True

Object name: FENGYUN 1C DEB

International designator: 1999-025BAC

Object number (NORAD): 30938

Object ID (CCSDS): 30938

Country: PEOPLES REPUBLIC OF CHINA (PRC)

Current information (Y/N): Y

RCS size: SMALL

Orbital parameters

Period: 101.421 minutes

Inclination: 98.5906 deg

SMA: 7204.106 km

Apoapsis: 859.054 km

Periapsis: 792.889 km

RAAN: 359.5177 deg

Eccentricy: 0.0045922

Argument of periapsis: 345.9263 deg

Mean anomaly: 68.2419 deg

Mean motion: 14.19817702 rev/day

Mean motion (dot): 0.00001119 rev/day2

B* drag term: 0.00054262 1/REarth

Two-line elements (TLE)

Creation date: Dec. 12, 2025, 7:26 a.m.

Reference frame: TEME

Reference center: EARTH

Epoch: Dec. 12, 2025, 12:04 a.m. UTC

TLE line 0: 0 FENGYUN 1C DEB

TLE line 1: 1 30938U 99025BAC 25346.00339177 .00001119 00000-0 54262-3 0 9992

TLE line 2: 2 30938 98.5906 359.5177 0045922 345.9263 68.2419 14.19817702971099

Live tracking on map

Real-time ground track for satellite FENGYUN 1C DEB.

In-orbit conjunctions

A list of the most updated potential collisions computed for object FENGYUN 1C DEB.

Target Orbit TCA Probability of collision Miss distance Type
CZ-6A DEB SSO 2025-10-22 14:43:35 0.0001358184 198.0 (m) DEBRIS
SL-16 R/B LEO 2025-06-16 03:56:07 0.0001223156 961.0 (m) ROCKET BODY
METEOR 2-8 DEB LEO 2025-04-01 11:55:58 0.0001084475 101.0 (m) DEBRIS
DELTA 1 DEB SSO 2025-03-10 02:47:06 0.0001444727 342.0 (m) DEBRIS
CZ-6A DEB LEO 2024-11-11 07:44:49 0.0002629584 763.0 (m) DEBRIS

Associated space launch

Chinese polar orbiting meteorological satellite

FENGYUN 1C DEB was lifted into orbit during the mission ‘Long March 4B | Feng Yun 1C’, on board a Long March 4B space rocket.

The launch took place on May 10, 1999, 1:33 a.m. from Launch Complex 7.

For more information about the launch, click the button.

Launch to space Long March 4B | Feng Yun 1C
Long March 4B | Feng Yun 1C

Agency: N/A

Status: Launch Successful

Launch date: May 10, 1999, 1:33 a.m. UTC

Rocket: Long March 4B

Launch pad: Launch Complex 7

Location: Taiyuan Satellite Launch Center, People's Republic of China

...

Latest news about this satellite

There are no fresh news available about this satellite. Check back as we update our databases every day.


Newsletter sign-up

Weekly statistics, charts and insights to help you stay on top of the space industry.